SCP
0 0 0 0 1 0 0 0 0 0 0 0 0 0 0 0 0 0 0 2 1 1 1 1 1 1 1 0 0 0 1 0 0 0 0 0 0 0 -0 0 0 0 0
1 1 1 1 0 1 0 0 0 0 0 0 0 0 0 0 1 1 1 1 1 1 1 1 1 1 1 0 0 0 0 0 0 0 0 0 0 0 0 0 0 0 0
2 2 2 1 0 0 0 0 0 1 0 1 0 0 1 1 1 1 1 1 1 1 1 1 1 1 1 1 0 0 0 0 0 0 0 0 0 0 0 0 0 0 0
3 4 2 1 1 1 1 0 0 0 0 0 0 0 1 1 1 2 2 2 1 1 1 1 1 1 1 1 0 0 0 0 0 0 0 0 0 0 0 0 0 0 0
2 3 3 2 1 1 1 2 1 0 0 1 0 1 2 3 2 2 2 3 3 2 1 0 0 1 1 1 0 0 1 0 0 0 0 0 0 0 0 0 0 0 0
3 3 3 3 2 1 1 1 0 0 0 0 1 1 3 3 3 3 3 4 2 2 1 0 0 1 1 0 0 0 1 0 0 0 0 0 0 0 0 0 0 0 0
3 5 3 2 3 2 1 1 0 1 0 0 1 3 2 3 3 4 5 4 3 2 1 1 1 1 1 0 0 0 0 0 0 0 0 0 0 0 0 0 0 0 0
3 3 2 1 1 2 1 1 1 0 0 1 2 4 4 2 3 5 5 3 3 2 1 2 2 2 2 1 1 1 0 0 0 0 0 0 0 0 0 0 0 0 0
1 3 3 1 2 1 1 2 1 1 0 1 1 4 5 3 6 6 4 3 2 3 2 2 2 2 2 1 1 1 0 0 0 0 1 0 0 0 0 0 0 0 0
1 2 2 2 3 -0 2 3 2 0 2 3 2 1 3 6 5 5 4 3 2 3 2 2 1 1 2 1 1 1 0 0 0 0 0 0 0 0 0 0 0 0 0
2 2 3 2 1 1 1 2 1 2 2 4 2 -0 3 5 4 4 3 2 4 2 1 2 1 2 2 1 1 1 1 1 0 0 0 0 0 0 0 0 0 0 0
4 4 3 4 4 4 3 3 3 6 4 3 1 0 6 9 5 5 3 2 2 3 2 2 3 1 2 1 1 1 1 0 0 0 0 0 0 0 0 0 0 0 0
3 4 6 2 2 2 2 1 2 3 5 4 1 2 3 6 5 4 3 2 3 3 2 3 2 1 1 1 2 1 1 0 0 0 0 0 0 0 0 0 0 0 0
0 1 4 3 3 3 4 5 3 3 5 5 4 5 4 4 4 3 4 4 4 2 2 1 1 1 1 1 1 0 0 0 0 0 0 0 0 0 0 0 0 0 0
1 1 1 2 6 5 6 5 5 5 5 6 8 7 6 3 4 4 4 3 3 2 1 1 2 2 2 1 0 1 1 0 0 0 0 0 0 0 0 0 0 0 0
1 2 2 3 12 6 5 5 6 6 5 6 7 4 4 5 4 4 4 3 2 1 1 1 2 2 2 1 0 1 0 0 0 0 0 0 0 0 0 0 0 0 0
2 1 2 2 2 4 6 5 5 6 5 5 4 3 4 5 3 4 4 3 2 1 1 1 2 2 1 1 1 0 0 0 0 0 0 0 0 0 0 0 0 -0 0
1 1 1 2 2 3 4 3 3 4 4 4 3 3 3 3 2 3 3 2 1 1 1 1 2 1 1 1 0 0 0 0 0 0 0 0 0 0 0 0 0 0 0
1 1 1 1 2 2 2 3 2 3 3 2 2 3 3 3 3 3 4 2 1 1 1 1 1 1 0 0 0 0 0 0 0 0 0 0 0 0 0 0 0 0 0
0 0 0 1 1 1 1 2 3 4 3 3 3 2 2 3 3 3 3 1 2 1 2 2 1 0 0 0 0 0 0 0 0 0 0 0 0 0 0 0 0 0 0
0 0 0 0 1 1 1 1 3 4 3 3 2 2 4 3 2 3 2 1 1 1 1 2 1 1 0 0 0 0 0 0 0 0 0 0 0 0 0 0 0 0 0
0 0 0 0 1 1 1 1 3 3 2 2 2 4 3 1 1 1 0 0 1 1 1 1 1 0 0 0 0 0 0 0 0 0 0 0 0 0 0 0 0 -0 -0
0 0 0 0 1 1 1 0 2 3 2 2 4 4 2 2 0 0 0 0 0 0 1 1 0 0 0 0 0 0 0 0 0 0 0 0 0 0 0 0 0 -0 -0
0 0 0 1 1 1 0 0 1 3 3 4 3 2 2 1 1 1 0 1 1 0 0 0 0 0 0 0 0 0 0 0 0 0 0 0 0 0 0 0 0 0 -0
0 0 0 0 1 1 0 0 3 3 3 3 3 2 1 1 0 0 1 0 0 0 0 0 0 0 0 0 0 0 0 0 0 0 0 0 0 0 0 0 0 0 0
0 0 0 0 1 1 0 0 4 4 3 3 2 0 0 0 0 0 1 1 1 0 0 0 0 0 0 0 0 0 0 0 0 0 0 0 0 0 0 0 0 0 -0
Wind_Speed_500mb
45 36 35 26 30 28 25 20 22 21 30 36 33 29 31 32 37 42 42 48 48 50 53 53 50 43 40 35 32 32 30 30 27 24 22 29 34 36 34 31 33 33 37
46 43 43 43 36 32 26 28 34 32 34 34 40 35 35 35 39 40 41 43 44 47 48 46 44 48 44 39 35 29 29 30 33 30 31 29 34 37 37 35 34 35 37
52 44 49 44 39 36 39 43 45 48 44 49 42 35 34 39 44 44 37 39 45 47 44 43 41 43 47 43 39 32 31 31 34 34 32 28 33 37 38 37 36 35 38
50 54 54 52 39 36 37 44 47 45 47 37 37 30 30 43 44 42 41 41 40 37 41 42 42 37 41 44 43 37 34 37 35 35 32 31 33 37 37 38 37 38 39
59 53 60 51 47 49 47 50 44 39 47 48 41 33 43 46 39 38 38 43 45 47 35 47 33 37 31 38 43 41 36 37 38 37 34 33 32 36 37 38 38 38 40
59 59 56 50 47 54 58 61 54 51 57 54 38 34 40 47 46 46 44 43 41 45 43 31 42 33 35 34 37 42 42 43 41 40 36 34 32 35 37 38 37 39 41
67 66 54 41 55 58 65 62 55 59 52 48 36 53 48 45 41 45 48 47 41 43 41 32 34 35 37 30 40 39 37 35 40 42 38 37 34 34 38 40 38 39 40
78 63 55 43 52 57 66 60 60 55 59 46 59 46 32 39 37 40 44 46 36 40 40 34 41 40 42 37 42 44 35 36 37 45 41 38 37 34 38 41 40 39 40
85 76 81 89 54 59 74 61 57 57 73 54 78 62 19 20 22 17 29 35 31 35 41 43 43 44 39 40 35 45 35 35 38 40 42 40 39 36 35 42 42 40 38
71 75 80 68 67 88 60 65 64 58 66 73 61 79 61 49 27 15 17 25 27 37 42 42 31 26 34 36 43 43 41 45 39 44 40 39 38 38 37 39 43 41 39
75 77 81 80 82 83 93 92 84 92 58 55 63 82 67 51 34 34 43 25 22 28 27 27 35 37 38 36 40 44 37 45 40 38 39 37 38 38 36 37 43 42 39
62 74 70 82 91 96 93 95 97 90 61 57 86 72 67 58 43 32 39 42 39 39 36 36 37 32 33 36 31 35 39 44 45 41 37 41 40 40 35 33 40 41 39
52 54 53 61 62 69 77 80 89 78 72 84 100 83 75 50 41 36 35 38 38 30 26 38 37 35 32 26 30 33 38 44 41 41 42 37 38 39 33 33 40 39 35
61 60 51 49 61 69 65 71 90 76 67 81 82 71 76 60 49 52 42 40 23 24 25 38 34 35 24 27 34 39 38 42 43 35 35 36 39 39 33 34 39 36 32
54 64 59 56 51 56 69 62 63 67 75 79 86 78 74 55 47 47 52 55 43 37 34 32 39 30 31 29 34 35 34 34 27 24 26 30 32 36 32 33 34 34 35
61 62 61 53 43 57 56 60 64 71 70 78 86 78 65 54 51 51 54 52 38 44 30 21 27 31 37 39 36 35 36 35 31 26 23 24 27 27 28 30 34 36 33
52 56 63 66 54 62 68 69 71 75 73 79 82 71 57 46 47 47 48 47 38 36 27 10 26 28 28 30 37 37 30 31 30 25 25 27 29 26 29 31 34 35 30
51 51 56 63 60 64 74 64 74 80 77 78 75 66 53 41 45 44 43 41 36 30 27 27 26 27 28 34 33 33 27 20 26 24 26 28 28 28 31 34 32 32 29
55 53 50 60 59 61 68 69 63 72 77 74 66 61 54 47 46 52 49 42 39 29 35 36 32 31 33 34 25 25 25 17 23 22 26 25 28 33 33 33 31 30 29
59 61 58 55 61 66 65 71 73 75 71 68 60 51 52 51 50 48 48 46 36 38 35 35 37 34 28 18 16 12 6 8 11 16 24 24 27 31 32 32 32 30 30
57 60 64 60 63 67 71 71 73 76 59 66 58 57 54 46 45 51 43 49 44 38 32 37 38 32 31 20 16 4 9 15 15 12 18 21 25 28 32 36 37 35 37
66 70 73 67 60 67 70 71 75 66 61 62 59 60 46 46 47 47 39 39 35 38 40 43 38 35 28 25 16 18 15 18 16 19 18 17 21 27 28 31 35 38 41
66 70 70 68 62 73 66 68 75 67 61 62 64 56 50 45 50 46 44 43 40 39 40 39 36 37 34 29 28 25 20 18 13 12 23 22 21 20 25 25 33 34 41
72 72 75 71 69 75 62 69 75 67 61 65 52 48 49 42 37 41 45 45 42 42 40 36 35 33 38 26 24 32 23 19 19 15 25 21 23 25 20 23 28 29 39
74 77 79 75 70 72 65 72 75 69 57 49 47 51 44 38 35 30 28 26 24 36 32 33 40 33 30 24 21 34 33 28 20 15 29 22 22 20 21 19 24 35 42
75 75 84 79 71 67 64 73 82 62 51 47 50 44 37 36 32 30 36 31 32 35 35 37 35 33 29 28 23 28 29 30 22 13 25 31 18 24 14 15 15 32 37
Wind_Direction_500mb
219 216 215 235 254 280 307 297 303 296 289 292 295 291 280 269 267 262 263 265 270 282 287 291 276 258 252 250 254 263 258 258 265 271 275 262 242 241 238 233 231 229 229
227 219 228 230 213 226 257 275 274 276 274 273 267 275 281 287 288 286 273 275 277 282 286 291 289 262 254 252 253 258 253 257 258 270 280 262 248 239 240 237 231 224 225
230 225 235 243 239 230 229 227 238 253 264 268 265 273 272 288 300 299 293 285 284 279 286 290 293 273 256 255 255 260 254 258 256 268 273 261 251 242 238 237 235 229 224
241 228 234 244 247 247 248 244 246 253 261 267 289 293 289 288 298 297 298 290 292 289 283 287 291 289 264 256 255 262 261 253 257 266 265 260 255 244 239 237 234 232 226
249 243 240 246 242 244 245 249 259 253 264 262 279 288 276 282 293 292 279 282 287 290 280 269 289 277 279 259 258 264 264 260 258 260 262 256 257 246 239 236 232 229 229
253 248 242 249 243 246 254 256 264 269 256 258 275 273 275 279 291 293 284 278 280 280 274 281 263 274 281 277 273 274 273 269 260 256 259 254 255 248 239 235 230 229 230
244 251 254 255 246 256 255 267 267 265 253 262 264 271 274 273 287 286 281 271 277 269 273 273 275 278 279 272 282 278 277 277 270 261 257 253 251 250 239 233 230 228 229
242 244 253 273 263 268 270 270 265 259 258 271 267 270 266 277 274 281 279 270 272 263 261 266 260 276 276 281 272 268 267 274 277 266 259 251 249 248 241 232 230 229 231
243 251 263 269 273 282 274 269 265 265 260 264 269 247 242 244 253 304 279 254 264 252 251 253 256 268 272 283 272 280 270 272 272 266 260 250 248 246 246 234 231 231 232
255 249 246 254 255 271 266 261 265 277 270 264 264 260 256 254 271 301 252 254 254 242 250 254 250 261 272 283 285 285 280 280 285 275 259 249 246 246 247 238 231 231 233
263 254 252 253 260 254 267 265 274 273 267 263 261 263 252 251 256 256 271 276 247 259 248 253 239 256 263 270 280 279 276 284 277 273 264 253 247 245 246 242 230 230 234
251 254 252 249 242 252 258 270 264 256 260 255 268 246 244 239 251 246 257 263 260 263 239 252 256 260 260 268 278 268 275 284 281 276 266 254 246 239 242 240 230 228 233
232 251 254 255 258 260 262 261 251 262 245 248 246 252 235 233 241 246 257 262 254 250 238 241 265 255 259 254 258 270 276 281 281 282 262 257 242 236 243 241 226 225 230
245 242 261 259 260 261 258 259 257 257 250 244 247 244 243 233 234 240 243 249 248 249 257 270 265 254 238 240 261 270 276 277 279 279 260 250 238 233 237 234 221 221 225
250 247 242 247 258 254 251 262 263 257 250 249 252 249 241 240 230 240 236 244 250 256 262 279 233 218 221 242 258 260 270 280 279 278 255 242 233 226 230 220 221 222 224
253 255 251 250 260 259 245 251 261 252 250 246 249 247 236 241 225 236 241 246 244 247 255 243 221 224 230 246 261 269 270 268 270 266 250 229 216 219 217 216 220 223 224
268 262 257 252 245 253 255 257 247 246 244 243 245 239 238 238 215 234 240 242 239 217 241 276 226 231 247 256 269 279 279 261 261 255 238 223 219 223 216 217 220 223 223
266 262 266 263 258 247 256 252 244 241 236 237 237 235 236 237 219 227 235 234 236 220 232 254 230 246 257 273 277 287 281 255 249 237 224 216 221 217 217 221 221 226 224
265 268 255 263 255 250 241 248 244 238 234 238 235 230 224 231 227 223 227 223 214 218 223 237 256 266 272 282 283 288 279 236 252 234 217 217 217 219 217 220 221 228 225
270 268 256 257 259 249 246 237 239 240 237 228 231 227 221 226 227 230 231 216 212 229 232 239 248 256 264 278 279 299 173 171 231 209 206 212 214 213 217 219 222 226 218
270 265 266 249 257 248 244 235 233 236 233 216 221 224 224 228 226 232 231 217 219 220 220 231 235 248 252 252 249 251 192 205 202 209 204 208 214 219 221 222 222 215 215
269 268 264 254 256 248 244 238 230 229 213 217 214 215 220 219 217 225 224 215 221 219 224 235 241 239 239 259 223 230 231 213 209 200 187 193 221 226 229 227 221 218 204
269 268 264 261 248 244 245 233 225 221 211 208 213 217 218 221 225 228 213 217 229 233 236 242 240 234 235 244 219 214 231 222 217 222 189 208 230 236 230 220 214 207 203
265 265 261 263 248 240 240 224 219 209 207 209 218 219 216 219 220 218 224 230 232 236 236 239 243 241 232 231 227 212 224 204 220 215 200 214 222 238 237 226 218 218 212
260 260 263 265 247 239 233 218 214 205 202 207 211 216 215 203 209 220 217 227 227 234 238 239 241 242 238 231 230 211 206 198 195 209 199 215 230 224 207 228 228 205 209
256 256 266 262 244 238 222 213 207 195 193 196 206 201 197 206 213 211 210 219 226 240 240 239 240 229 231 229 225 220 208 198 208 218 216 222 222 205 206 212 209 192 206
Wind_Speed_850mb
45 36 35 26 30 28 25 20 22 21 30 36 33 29 31 32 37 42 42 48 48 50 53 53 50 43 40 35 32 32 30 30 27 24 22 29 34 36 34 31 33 33 37
46 43 43 43 36 32 26 28 34 32 34 34 40 35 35 35 39 40 41 43 44 47 48 46 44 48 44 39 35 29 29 30 33 30 31 29 34 37 37 35 34 35 37
52 44 49 44 39 36 39 43 45 48 44 49 42 35 34 39 44 44 37 39 45 47 44 43 41 43 47 43 39 32 31 31 34 34 32 28 33 37 38 37 36 35 38
50 54 54 52 39 36 37 44 47 45 47 37 37 30 30 43 44 42 41 41 40 37 41 42 42 37 41 44 43 37 34 37 35 35 32 31 33 37 37 38 37 38 39
59 53 60 51 47 49 47 50 44 39 47 48 41 33 43 46 39 38 38 43 45 47 35 47 33 37 31 38 43 41 36 37 38 37 34 33 32 36 37 38 38 38 40
59 59 56 50 47 54 58 61 54 51 57 54 38 34 40 47 46 46 44 43 41 45 43 31 42 33 35 34 37 42 42 43 41 40 36 34 32 35 37 38 37 39 41
67 66 54 41 55 58 65 62 55 59 52 48 36 53 48 45 41 45 48 47 41 43 41 32 34 35 37 30 40 39 37 35 40 42 38 37 34 34 38 40 38 39 40
78 63 55 43 52 57 66 60 60 55 59 46 59 46 32 39 37 40 44 46 36 40 40 34 41 40 42 37 42 44 35 36 37 45 41 38 37 34 38 41 40 39 40
85 76 81 89 54 59 74 61 57 57 73 54 78 62 19 20 22 17 29 35 31 35 41 43 43 44 39 40 35 45 35 35 38 40 42 40 39 36 35 42 42 40 38
71 75 80 68 67 88 60 65 64 58 66 73 61 79 61 49 27 15 17 25 27 37 42 42 31 26 34 36 43 43 41 45 39 44 40 39 38 38 37 39 43 41 39
75 77 81 80 82 83 93 92 84 92 58 55 63 82 67 51 34 34 43 25 22 28 27 27 35 37 38 36 40 44 37 45 40 38 39 37 38 38 36 37 43 42 39
62 74 70 82 91 96 93 95 97 90 61 57 86 72 67 58 43 32 39 42 39 39 36 36 37 32 33 36 31 35 39 44 45 41 37 41 40 40 35 33 40 41 39
52 54 53 61 62 69 77 80 89 78 72 84 100 83 75 50 41 36 35 38 38 30 26 38 37 35 32 26 30 33 38 44 41 41 42 37 38 39 33 33 40 39 35
61 60 51 49 61 69 65 71 90 76 67 81 82 71 76 60 49 52 42 40 23 24 25 38 34 35 24 27 34 39 38 42 43 35 35 36 39 39 33 34 39 36 32
54 64 59 56 51 56 69 62 63 67 75 79 86 78 74 55 47 47 52 55 43 37 34 32 39 30 31 29 34 35 34 34 27 24 26 30 32 36 32 33 34 34 35
61 62 61 53 43 57 56 60 64 71 70 78 86 78 65 54 51 51 54 52 38 44 30 21 27 31 37 39 36 35 36 35 31 26 23 24 27 27 28 30 34 36 33
52 56 63 66 54 62 68 69 71 75 73 79 82 71 57 46 47 47 48 47 38 36 27 10 26 28 28 30 37 37 30 31 30 25 25 27 29 26 29 31 34 35 30
51 51 56 63 60 64 74 64 74 80 77 78 75 66 53 41 45 44 43 41 36 30 27 27 26 27 28 34 33 33 27 20 26 24 26 28 28 28 31 34 32 32 29
55 53 50 60 59 61 68 69 63 72 77 74 66 61 54 47 46 52 49 42 39 29 35 36 32 31 33 34 25 25 25 17 23 22 26 25 28 33 33 33 31 30 29
59 61 58 55 61 66 65 71 73 75 71 68 60 51 52 51 50 48 48 46 36 38 35 35 37 34 28 18 16 12 6 8 11 16 24 24 27 31 32 32 32 30 30
57 60 64 60 63 67 71 71 73 76 59 66 58 57 54 46 45 51 43 49 44 38 32 37 38 32 31 20 16 4 9 15 15 12 18 21 25 28 32 36 37 35 37
66 70 73 67 60 67 70 71 75 66 61 62 59 60 46 46 47 47 39 39 35 38 40 43 38 35 28 25 16 18 15 18 16 19 18 17 21 27 28 31 35 38 41
66 70 70 68 62 73 66 68 75 67 61 62 64 56 50 45 50 46 44 43 40 39 40 39 36 37 34 29 28 25 20 18 13 12 23 22 21 20 25 25 33 34 41
72 72 75 71 69 75 62 69 75 67 61 65 52 48 49 42 37 41 45 45 42 42 40 36 35 33 38 26 24 32 23 19 19 15 25 21 23 25 20 23 28 29 39
74 77 79 75 70 72 65 72 75 69 57 49 47 51 44 38 35 30 28 26 24 36 32 33 40 33 30 24 21 34 33 28 20 15 29 22 22 20 21 19 24 35 42
75 75 84 79 71 67 64 73 82 62 51 47 50 44 37 36 32 30 36 31 32 35 35 37 35 33 29 28 23 28 29 30 22 13 25 31 18 24 14 15 15 32 37
Wind_Direction_850mb
219 216 215 235 254 280 307 297 303 296 289 292 295 291 280 269 267 262 263 265 270 282 287 291 276 258 252 250 254 263 258 258 265 271 275 262 242 241 238 233 231 229 229
227 219 228 230 213 226 257 275 274 276 274 273 267 275 281 287 288 286 273 275 277 282 286 291 289 262 254 252 253 258 253 257 258 270 280 262 248 239 240 237 231 224 225
230 225 235 243 239 230 229 227 238 253 264 268 265 273 272 288 300 299 293 285 284 279 286 290 293 273 256 255 255 260 254 258 256 268 273 261 251 242 238 237 235 229 224
241 228 234 244 247 247 248 244 246 253 261 267 289 293 289 288 298 297 298 290 292 289 283 287 291 289 264 256 255 262 261 253 257 266 265 260 255 244 239 237 234 232 226
249 243 240 246 242 244 245 249 259 253 264 262 279 288 276 282 293 292 279 282 287 290 280 269 289 277 279 259 258 264 264 260 258 260 262 256 257 246 239 236 232 229 229
253 248 242 249 243 246 254 256 264 269 256 258 275 273 275 279 291 293 284 278 280 280 274 281 263 274 281 277 273 274 273 269 260 256 259 254 255 248 239 235 230 229 230
244 251 254 255 246 256 255 267 267 265 253 262 264 271 274 273 287 286 281 271 277 269 273 273 275 278 279 272 282 278 277 277 270 261 257 253 251 250 239 233 230 228 229
242 244 253 273 263 268 270 270 265 259 258 271 267 270 266 277 274 281 279 270 272 263 261 266 260 276 276 281 272 268 267 274 277 266 259 251 249 248 241 232 230 229 231
243 251 263 269 273 282 274 269 265 265 260 264 269 247 242 244 253 304 279 254 264 252 251 253 256 268 272 283 272 280 270 272 272 266 260 250 248 246 246 234 231 231 232
255 249 246 254 255 271 266 261 265 277 270 264 264 260 256 254 271 301 252 254 254 242 250 254 250 261 272 283 285 285 280 280 285 275 259 249 246 246 247 238 231 231 233
263 254 252 253 260 254 267 265 274 273 267 263 261 263 252 251 256 256 271 276 247 259 248 253 239 256 263 270 280 279 276 284 277 273 264 253 247 245 246 242 230 230 234
251 254 252 249 242 252 258 270 264 256 260 255 268 246 244 239 251 246 257 263 260 263 239 252 256 260 260 268 278 268 275 284 281 276 266 254 246 239 242 240 230 228 233
232 251 254 255 258 260 262 261 251 262 245 248 246 252 235 233 241 246 257 262 254 250 238 241 265 255 259 254 258 270 276 281 281 282 262 257 242 236 243 241 226 225 230
245 242 261 259 260 261 258 259 257 257 250 244 247 244 243 233 234 240 243 249 248 249 257 270 265 254 238 240 261 270 276 277 279 279 260 250 238 233 237 234 221 221 225
250 247 242 247 258 254 251 262 263 257 250 249 252 249 241 240 230 240 236 244 250 256 262 279 233 218 221 242 258 260 270 280 279 278 255 242 233 226 230 220 221 222 224
253 255 251 250 260 259 245 251 261 252 250 246 249 247 236 241 225 236 241 246 244 247 255 243 221 224 230 246 261 269 270 268 270 266 250 229 216 219 217 216 220 223 224
268 262 257 252 245 253 255 257 247 246 244 243 245 239 238 238 215 234 240 242 239 217 241 276 226 231 247 256 269 279 279 261 261 255 238 223 219 223 216 217 220 223 223
266 262 266 263 258 247 256 252 244 241 236 237 237 235 236 237 219 227 235 234 236 220 232 254 230 246 257 273 277 287 281 255 249 237 224 216 221 217 217 221 221 226 224
265 268 255 263 255 250 241 248 244 238 234 238 235 230 224 231 227 223 227 223 214 218 223 237 256 266 272 282 283 288 279 236 252 234 217 217 217 219 217 220 221 228 225
270 268 256 257 259 249 246 237 239 240 237 228 231 227 221 226 227 230 231 216 212 229 232 239 248 256 264 278 279 299 173 171 231 209 206 212 214 213 217 219 222 226 218
270 265 266 249 257 248 244 235 233 236 233 216 221 224 224 228 226 232 231 217 219 220 220 231 235 248 252 252 249 251 192 205 202 209 204 208 214 219 221 222 222 215 215
269 268 264 254 256 248 244 238 230 229 213 217 214 215 220 219 217 225 224 215 221 219 224 235 241 239 239 259 223 230 231 213 209 200 187 193 221 226 229 227 221 218 204
269 268 264 261 248 244 245 233 225 221 211 208 213 217 218 221 225 228 213 217 229 233 236 242 240 234 235 244 219 214 231 222 217 222 189 208 230 236 230 220 214 207 203
265 265 261 263 248 240 240 224 219 209 207 209 218 219 216 219 220 218 224 230 232 236 236 239 243 241 232 231 227 212 224 204 220 215 200 214 222 238 237 226 218 218 212
260 260 263 265 247 239 233 218 214 205 202 207 211 216 215 203 209 220 217 227 227 234 238 239 241 242 238 231 230 211 206 198 195 209 199 215 230 224 207 228 228 205 209
256 256 266 262 244 238 222 213 207 195 193 196 206 201 197 206 213 211 210 219 226 240 240 239 240 229 231 229 225 220 208 198 208 218 216 222 222 205 206 212 209 192 206